Time,TemperatureF,DewpointF,PressureIn,WindDirection,WindDirectionDegrees,WindSpeedMPH,WindSpeedGustMPH,Humidity,HourlyPrecipIn,Conditions,Clouds,dailyrainin,SoftwareType,DateUTC
2013-06-01 00:01:00,38.0,33.0,-100.00,NW,315,29.0,37.0,79,-99.99,,,-99.99,,2013-06-01 06:01:00,
2013-06-01 00:12:00,38.0,32.0,-100.00,NW,305,26.0,37.0,79,-99.99,,,-99.99,,2013-06-01 06:12:00,
2013-06-01 00:22:00,38.0,32.0,-100.00,WNW,300,30.0,37.0,79,-99.99,,,-99.99,,2013-06-01 06:22:00,
2013-06-01 00:32:00,38.0,32.0,-100.00,NW,310,30.0,40.0,79,-99.99,,,-99.99,,2013-06-01 06:32:00,
2013-06-01 00:42:00,39.0,32.0,-100.00,NW,315,34.0,47.0,77,-99.99,,,-99.99,,2013-06-01 06:42:00,
2013-06-01 00:52:00,39.0,32.0,-100.00,NW,315,35.0,47.0,76,-99.99,,,-99.99,,2013-06-01 06:52:00,
2013-06-01 01:01:00,38.0,32.0,-100.00,NW,315,32.0,43.0,77,-99.99,,,-99.99,,2013-06-01 07:01:00,
2013-06-01 01:11:00,38.0,32.0,-100.00,NW,315,32.0,42.0,77,-99.99,,,-99.99,,2013-06-01 07:11:00,
2013-06-01 01:21:00,38.0,32.0,-100.00,NW,315,33.0,47.0,77,-99.99,,,-99.99,,2013-06-01 07:21:00,
2013-06-01 01:31:00,38.0,32.0,-100.00,NW,310,34.0,44.0,79,-99.99,,,-99.99,,2013-06-01 07:31:00,
2013-06-01 01:42:00,38.0,32.0,-100.00,NW,315,32.0,41.0,79,-99.99,,,-99.99,,2013-06-01 07:42:00,
2013-06-01 01:52:00,38.0,32.0,-100.00,NW,315,34.0,45.0,79,-99.99,,,-99.99,,2013-06-01 07:52:00,
2013-06-01 02:02:00,38.0,33.0,-100.00,NW,310,31.0,44.0,80,-99.99,,,-99.99,,2013-06-01 08:02:00,
2013-06-01 02:11:00,38.0,33.0,-100.00,NW,315,30.0,39.0,80,-99.99,,,-99.99,,2013-06-01 08:11:00,
2013-06-01 02:21:00,38.0,32.0,-100.00,NW,310,31.0,42.0,80,-99.99,,,-99.99,,2013-06-01 08:21:00,
2013-06-01 02:32:00,38.0,33.0,-100.00,NW,315,32.0,44.0,82,-99.99,,,-99.99,,2013-06-01 08:32:00,
2013-06-01 02:42:00,38.0,33.0,-100.00,NW,310,30.0,41.0,82,-99.99,,,-99.99,,2013-06-01 08:42:00,
2013-06-01 02:52:00,38.0,33.0,-100.00,NW,310,28.0,40.0,82,-99.99,,,-99.99,,2013-06-01 08:52:00,
2013-06-01 03:01:00,37.0,33.0,-100.00,NW,320,26.0,39.0,83,-99.99,,,-99.99,,2013-06-01 09:01:00,
2013-06-01 03:12:00,37.0,33.0,-100.00,NW,315,34.0,41.0,84,-99.99,,,-99.99,,2013-06-01 09:12:00,
2013-06-01 03:21:00,37.0,33.0,-100.00,NW,315,30.0,43.0,84,-99.99,,,-99.99,,2013-06-01 09:21:00,
2013-06-01 03:33:00,37.0,33.0,-100.00,NW,320,34.0,45.0,86,-99.99,,,-99.99,,2013-06-01 09:33:00,
2013-06-01 03:42:00,36.0,34.0,-100.00,NW,315,35.0,44.0,88,-99.99,,,-99.99,,2013-06-01 09:42:00,
2013-06-01 03:53:00,36.0,34.0,-100.00,NW,315,34.0,45.0,91,-99.99,,,-99.99,,2013-06-01 09:53:00,
2013-06-01 04:02:00,37.0,34.0,-100.00,NW,320,29.0,42.0,90,-99.99,,,-99.99,,2013-06-01 10:02:00,
2013-06-01 04:12:00,37.0,34.0,-100.00,NW,315,29.0,38.0,88,-99.99,,,-99.99,,2013-06-01 10:12:00,
2013-06-01 04:22:00,37.0,34.0,-100.00,NW,320,27.0,39.0,88,-99.99,,,-99.99,,2013-06-01 10:22:00,
2013-06-01 04:33:00,37.0,34.0,-100.00,NW,320,29.0,40.0,88,-99.99,,,-99.99,,2013-06-01 10:33:00,
2013-06-01 04:42:00,37.0,34.0,-100.00,NW,315,29.0,40.0,88,-99.99,,,-99.99,,2013-06-01 10:42:00,
2013-06-01 04:52:00,36.0,34.0,-100.00,NW,320,26.0,39.0,90,-99.99,,,-99.99,,2013-06-01 10:52:00,
2013-06-01 05:02:00,36.0,34.0,-100.00,NW,320,30.0,38.0,90,-99.99,,,-99.99,,2013-06-01 11:02:00,
2013-06-01 05:11:00,36.0,34.0,-100.00,NW,320,34.0,44.0,90,-99.99,,,-99.99,,2013-06-01 11:11:00,
2013-06-01 05:21:00,36.0,34.0,-100.00,NW,320,27.0,39.0,91,-99.99,,,-99.99,,2013-06-01 11:21:00,
2013-06-01 05:32:00,36.0,34.0,-100.00,NW,320,31.0,38.0,91,-99.99,,,-99.99,,2013-06-01 11:32:00,
2013-06-01 05:42:00,36.0,34.0,-100.00,NW,315,26.0,32.0,92,-99.99,,,-99.99,,2013-06-01 11:42:00,
2013-06-01 05:52:00,36.0,34.0,-100.00,NW,315,28.0,37.0,92,-99.99,,,-99.99,,2013-06-01 11:52:00,
2013-06-01 06:01:00,36.0,34.0,-100.00,NW,325,26.0,35.0,93,-99.99,,,-99.99,,2013-06-01 12:01:00,
2013-06-01 06:12:00,36.0,35.0,-100.00,NW,320,24.0,32.0,93,-99.99,,,-99.99,,2013-06-01 12:12:00,
2013-06-01 06:21:00,36.0,35.0,-100.00,NW,320,24.0,32.0,92,-99.99,,,-99.99,,2013-06-01 12:21:00,
2013-06-01 06:32:00,37.0,35.0,-100.00,NW,320,21.0,32.0,92,-99.99,,,-99.99,,2013-06-01 12:32:00,
2013-06-01 06:41:00,37.0,35.0,-100.00,NW,320,22.0,32.0,91,-99.99,,,-99.99,,2013-06-01 12:41:00,
2013-06-01 06:52:00,37.0,35.0,-100.00,NW,310,24.0,30.0,91,-99.99,,,-99.99,,2013-06-01 12:52:00,
2013-06-01 07:01:00,37.0,35.0,-100.00,NW,315,22.0,30.0,91,-99.99,,,-99.99,,2013-06-01 13:01:00,
2013-06-01 07:11:00,37.0,35.0,-100.00,NW,305,27.0,32.0,91,-99.99,,,-99.99,,2013-06-01 13:11:00,
2013-06-01 07:22:00,37.0,35.0,-100.00,NW,315,22.0,28.0,91,-99.99,,,-99.99,,2013-06-01 13:22:00,
2013-06-01 07:32:00,37.0,35.0,-100.00,NW,315,25.0,30.0,91,-99.99,,,-99.99,,2013-06-01 13:32:00,
2013-06-01 07:42:00,37.0,35.0,-100.00,NW,320,22.0,30.0,91,-99.99,,,-99.99,,2013-06-01 13:42:00,
2013-06-01 07:52:00,37.0,35.0,-100.00,NW,310,24.0,29.0,91,-99.99,,,-99.99,,2013-06-01 13:52:00,
2013-06-01 08:02:00,38.0,35.0,-100.00,NW,315,21.0,30.0,91,-99.99,,,-99.99,,2013-06-01 14:02:00,
2013-06-01 08:11:00,37.0,35.0,-100.00,NW,315,21.0,30.0,91,-99.99,,,-99.99,,2013-06-01 14:11:00,
2013-06-01 08:21:00,38.0,35.0,-100.00,NW,310,21.0,26.0,91,-99.99,,,-99.99,,2013-06-01 14:21:00,
2013-06-01 08:32:00,38.0,35.0,-100.00,NW,310,21.0,29.0,90,-99.99,,,-99.99,,2013-06-01 14:32:00,
2013-06-01 08:42:00,38.0,35.0,-100.00,NW,315,21.0,31.0,88,-99.99,,,-99.99,,2013-06-01 14:42:00,
2013-06-01 08:52:00,39.0,35.0,-100.00,NW,320,21.0,32.0,86,-99.99,,,-99.99,,2013-06-01 14:52:00,
2013-06-01 09:02:00,38.0,35.0,-100.00,NW,325,26.0,31.0,87,-99.99,,,-99.99,,2013-06-01 15:02:00,
2013-06-01 09:11:00,39.0,36.0,-100.00,NW,325,24.0,32.0,89,-99.99,,,-99.99,,2013-06-01 15:11:00,
2013-06-01 09:21:00,40.0,36.0,-100.00,NW,320,24.0,29.0,87,-99.99,,,-99.99,,2013-06-01 15:21:00,
2013-06-01 09:33:00,40.0,35.0,-100.00,NW,320,21.0,29.0,83,-99.99,,,-99.99,,2013-06-01 15:33:00,
2013-06-01 09:43:00,41.0,35.0,-100.00,NW,305,20.0,29.0,79,-99.99,,,-99.99,,2013-06-01 15:43:00,
2013-06-01 09:53:00,41.0,35.0,-100.00,NW,310,21.0,27.0,77,-99.99,,,-99.99,,2013-06-01 15:53:00,
2013-06-01 10:03:00,42.0,35.0,-100.00,NW,315,22.0,27.0,75,-99.99,,,-99.99,,2013-06-01 16:03:00,
2013-06-01 10:12:00,43.0,35.0,-100.00,NW,320,22.0,27.0,74,-99.99,,,-99.99,,2013-06-01 16:12:00,
2013-06-01 10:23:00,43.0,34.0,-100.00,NW,325,27.0,31.0,69,-99.99,,,-99.99,,2013-06-01 16:23:00,
2013-06-01 10:33:00,45.0,35.0,-100.00,NW,315,20.0,30.0,69,-99.99,,,-99.99,,2013-06-01 16:33:00,
2013-06-01 10:42:00,45.0,35.0,-100.00,NW,305,20.0,27.0,67,-99.99,,,-99.99,,2013-06-01 16:42:00,
2013-06-01 10:52:00,44.0,34.0,-100.00,NW,325,19.0,29.0,67,-99.99,,,-99.99,,2013-06-01 16:52:00,
2013-06-01 11:02:00,44.0,35.0,-100.00,NW,310,18.0,26.0,67,-99.99,,,-99.99,,2013-06-01 17:02:00,
2013-06-01 11:11:00,46.0,35.0,-100.00,NW,325,25.0,30.0,65,-99.99,,,-99.99,,2013-06-01 17:11:00,
2013-06-01 11:22:00,46.0,35.0,-100.00,NW,320,19.0,29.0,64,-99.99,,,-99.99,,2013-06-01 17:22:00,
2013-06-01 11:32:00,47.0,34.0,-100.00,NW,325,25.0,30.0,60,-99.99,,,-99.99,,2013-06-01 17:32:00,
2013-06-01 11:42:00,47.0,34.0,-100.00,NW,325,21.0,30.0,59,-99.99,,,-99.99,,2013-06-01 17:42:00,
2013-06-01 11:52:00,47.0,34.0,-100.00,NW,325,22.0,30.0,59,-99.99,,,-99.99,,2013-06-01 17:52:00,
2013-06-01 12:01:00,48.0,35.0,-100.00,NW,315,19.0,29.0,59,-99.99,,,-99.99,,2013-06-01 18:01:00,
2013-06-01 12:12:00,48.0,34.0,-100.00,NNW,330,21.0,27.0,57,-99.99,,,-99.99,,2013-06-01 18:12:00,
2013-06-01 12:21:00,48.0,33.0,-100.00,NW,325,19.0,28.0,54,-99.99,,,-99.99,,2013-06-01 18:21:00,
2013-06-01 12:32:00,49.0,34.0,-100.00,NW,320,18.0,26.0,55,-99.99,,,-99.99,,2013-06-01 18:32:00,
2013-06-01 12:41:00,50.0,34.0,-100.00,NW,320,18.0,29.0,53,-99.99,,,-99.99,,2013-06-01 18:41:00,
2013-06-01 12:51:00,51.0,33.0,-100.00,NNW,335,17.0,24.0,51,-99.99,,,-99.99,,2013-06-01 18:51:00,
2013-06-01 13:02:00,51.0,33.0,-100.00,NW,310,15.0,34.0,50,-99.99,,,-99.99,,2013-06-01 19:02:00,
2013-06-01 13:11:00,51.0,33.0,-100.00,WNW,295,16.0,24.0,49,-99.99,,,-99.99,,2013-06-01 19:11:00,
2013-06-01 13:21:00,52.0,33.0,-100.00,NW,310,12.0,27.0,49,-99.99,,,-99.99,,2013-06-01 19:21:00,
2013-06-01 13:32:00,52.0,33.0,-100.00,NW,315,15.0,28.0,48,-99.99,,,-99.99,,2013-06-01 19:32:00,
2013-06-01 13:41:00,52.0,34.0,-100.00,West,280,15.0,23.0,48,-99.99,,,-99.99,,2013-06-01 19:41:00,
2013-06-01 13:52:00,53.0,34.0,-100.00,NW,305,17.0,26.0,48,-99.99,,,-99.99,,2013-06-01 19:52:00,
2013-06-01 14:01:00,53.0,33.0,-100.00,NW,310,15.0,24.0,47,-99.99,,,-99.99,,2013-06-01 20:01:00,
2013-06-01 14:12:00,53.0,33.0,-100.00,NW,315,12.0,26.0,47,-99.99,,,-99.99,,2013-06-01 20:12:00,
2013-06-01 14:21:00,53.0,33.0,-100.00,NW,305,12.0,22.0,47,-99.99,,,-99.99,,2013-06-01 20:21:00,
2013-06-01 14:32:00,54.0,34.0,-100.00,WNW,285,15.0,21.0,46,-99.99,,,-99.99,,2013-06-01 20:32:00,
2013-06-01 14:41:00,54.0,34.0,-100.00,West,265,11.0,20.0,47,-99.99,,,-99.99,,2013-06-01 20:41:00,
2013-06-01 14:52:00,54.0,34.0,-100.00,WNW,300,14.0,19.0,46,-99.99,,,-99.99,,2013-06-01 20:52:00,
2013-06-01 15:01:00,53.0,33.0,-100.00,NNW,340,13.0,17.0,47,-99.99,,,-99.99,,2013-06-01 21:01:00,
2013-06-01 15:11:00,54.0,34.0,-100.00,WNW,300,13.0,19.0,46,-99.99,,,-99.99,,2013-06-01 21:11:00,
2013-06-01 15:21:00,54.0,33.0,-100.00,NW,305,11.0,18.0,46,-99.99,,,-99.99,,2013-06-01 21:21:00,
2013-06-01 15:33:00,55.0,34.0,-100.00,West,280,11.0,19.0,45,-99.99,,,-99.99,,2013-06-01 21:33:00,
2013-06-01 15:42:00,56.0,35.0,-100.00,WNW,300,11.0,20.0,44,-99.99,,,-99.99,,2013-06-01 21:42:00,
2013-06-01 15:53:00,56.0,34.0,-100.00,NNW,335,15.0,19.0,43,-99.99,,,-99.99,,2013-06-01 21:53:00,
2013-06-01 16:03:00,56.0,35.0,-100.00,NW,315,12.0,21.0,44,-99.99,,,-99.99,,2013-06-01 22:03:00,
2013-06-01 16:12:00,55.0,33.0,-100.00,North,355,17.0,24.0,43,-99.99,,,-99.99,,2013-06-01 22:12:00,
2013-06-01 16:23:00,56.0,33.0,-100.00,NW,310,13.0,21.0,42,-99.99,,,-99.99,,2013-06-01 22:23:00,
2013-06-01 16:33:00,56.0,33.0,-100.00,NW,320,11.0,21.0,42,-99.99,,,-99.99,,2013-06-01 22:33:00,
2013-06-01 16:42:00,56.0,34.0,-100.00,NW,325,13.0,21.0,42,-99.99,,,-99.99,,2013-06-01 22:42:00,
2013-06-01 16:53:00,56.0,33.0,-100.00,NNW,345,17.0,21.0,42,-99.99,,,-99.99,,2013-06-01 22:53:00,
2013-06-01 17:02:00,55.0,33.0,-100.00,NW,310,14.0,19.0,42,-99.99,,,-99.99,,2013-06-01 23:02:00,
2013-06-01 17:11:00,55.0,32.0,-100.00,NW,320,11.0,17.0,42,-99.99,,,-99.99,,2013-06-01 23:11:00,
2013-06-01 17:21:00,55.0,33.0,-100.00,NW,315,11.0,16.0,43,-99.99,,,-99.99,,2013-06-01 23:21:00,
2013-06-01 17:32:00,54.0,33.0,-100.00,WNW,300,11.0,18.0,43,-99.99,,,-99.99,,2013-06-01 23:32:00,
2013-06-01 17:42:00,54.0,33.0,-100.00,NW,315,9.0,12.0,44,-99.99,,,-99.99,,2013-06-01 23:42:00,
2013-06-01 17:52:00,54.0,33.0,-100.00,NW,315,9.0,12.0,44,-99.99,,,-99.99,,2013-06-01 23:52:00,
2013-06-01 18:02:00,54.0,33.0,-100.00,NW,320,9.0,12.0,44,-99.99,,,-99.99,,2013-06-02 00:02:00,
2013-06-01 18:11:00,54.0,33.0,-100.00,NW,320,11.0,15.0,43,-99.99,,,-99.99,,2013-06-02 00:11:00,
2013-06-01 18:21:00,54.0,33.0,-100.00,NW,325,12.0,16.0,43,-99.99,,,-99.99,,2013-06-02 00:21:00,
2013-06-01 18:32:00,55.0,33.0,-100.00,NNW,340,10.0,12.0,43,-99.99,,,-99.99,,2013-06-02 00:32:00,
2013-06-01 18:41:00,54.0,33.0,-100.00,North,0,7.0,10.0,43,-99.99,,,-99.99,,2013-06-02 00:41:00,
2013-06-01 18:51:00,54.0,33.0,-100.00,NW,315,6.0,12.0,44,-99.99,,,-99.99,,2013-06-02 00:51:00,
2013-06-01 19:01:00,54.0,33.0,-100.00,NW,305,6.0,7.0,44,-99.99,,,-99.99,,2013-06-02 01:01:00,
2013-06-01 19:11:00,54.0,33.0,-100.00,North,355,6.0,7.0,44,-99.99,,,-99.99,,2013-06-02 01:11:00,
2013-06-01 19:21:00,54.0,33.0,-100.00,North,0,2.0,7.0,43,-99.99,,,-99.99,,2013-06-02 01:21:00,
2013-06-01 19:32:00,54.0,33.0,-100.00,NW,315,6.0,9.0,43,-99.99,,,-99.99,,2013-06-02 01:32:00,
2013-06-01 19:41:00,54.0,33.0,-100.00,NW,320,4.0,7.0,44,-99.99,,,-99.99,,2013-06-02 01:41:00,
2013-06-01 19:52:00,53.0,32.0,-100.00,North,0,2.0,6.0,44,-99.99,,,-99.99,,2013-06-02 01:52:00,
2013-06-01 20:01:00,53.0,32.0,-100.00,NE,40,2.0,2.0,44,-99.99,,,-99.99,,2013-06-02 02:01:00,
2013-06-01 20:12:00,53.0,32.0,-100.00,NE,55,2.0,3.0,45,-99.99,,,-99.99,,2013-06-02 02:12:00,
2013-06-01 20:21:00,53.0,33.0,-100.00,East,85,2.0,2.0,46,-99.99,,,-99.99,,2013-06-02 02:21:00,
2013-06-01 20:32:00,52.0,33.0,-100.00,ESE,115,2.0,3.0,47,-99.99,,,-99.99,,2013-06-02 02:32:00,
2013-06-01 20:41:00,49.0,31.0,-100.00,East,80,6.0,13.0,51,-99.99,,,-99.99,,2013-06-02 02:41:00,
2013-06-01 20:51:00,47.0,32.0,-100.00,East,80,7.0,9.0,54,-99.99,,,-99.99,,2013-06-02 02:51:00,
2013-06-01 21:02:00,47.0,32.0,-100.00,East,85,4.0,9.0,55,-99.99,,,-99.99,,2013-06-02 03:02:00,
2013-06-01 21:11:00,46.0,32.0,-100.00,East,90,7.0,9.0,57,-99.99,,,-99.99,,2013-06-02 03:11:00,
2013-06-01 21:21:00,46.0,32.0,-100.00,ESE,105,6.0,8.0,58,-99.99,,,-99.99,,2013-06-02 03:21:00,
2013-06-01 21:33:00,46.0,32.0,-100.00,ESE,120,7.0,9.0,59,-99.99,,,-99.99,,2013-06-02 03:33:00,
2013-06-01 21:43:00,45.0,32.0,-100.00,ESE,115,6.0,11.0,60,-99.99,,,-99.99,,2013-06-02 03:43:00,
2013-06-01 21:52:00,44.0,32.0,-100.00,ESE,120,7.0,9.0,63,-99.99,,,-99.99,,2013-06-02 03:52:00,
2013-06-01 22:02:00,43.0,32.0,-100.00,SE,130,7.0,10.0,64,-99.99,,,-99.99,,2013-06-02 04:02:00,
2013-06-01 22:13:00,43.0,32.0,-100.00,SE,135,10.0,12.0,65,-99.99,,,-99.99,,2013-06-02 04:13:00,
2013-06-01 22:23:00,43.0,32.0,-100.00,ESE,120,10.0,13.0,65,-99.99,,,-99.99,,2013-06-02 04:23:00,
2013-06-01 22:33:00,43.0,32.0,-100.00,ESE,120,12.0,15.0,66,-99.99,,,-99.99,,2013-06-02 04:33:00,
2013-06-01 22:42:00,42.0,32.0,-100.00,SE,130,11.0,13.0,66,-99.99,,,-99.99,,2013-06-02 04:42:00,
2013-06-01 22:52:00,43.0,33.0,-100.00,SE,140,12.0,14.0,66,-99.99,,,-99.99,,2013-06-02 04:52:00,
2013-06-01 23:02:00,42.0,32.0,-100.00,SE,140,11.0,14.0,68,-99.99,,,-99.99,,2013-06-02 05:02:00,
2013-06-01 23:12:00,42.0,33.0,-100.00,SE,145,12.0,16.0,68,-99.99,,,-99.99,,2013-06-02 05:12:00,
2013-06-01 23:22:00,42.0,32.0,-100.00,SE,145,11.0,15.0,68,-99.99,,,-99.99,,2013-06-02 05:22:00,
2013-06-01 23:32:00,42.0,32.0,-100.00,SSE,150,9.0,14.0,69,-99.99,,,-99.99,,2013-06-02 05:32:00,
2013-06-01 23:42:00,41.0,32.0,-100.00,SSE,155,10.0,13.0,70,-99.99,,,-99.99,,2013-06-02 05:42:00,
2013-06-01 23:52:00,41.0,32.0,-100.00,SSE,160,10.0,15.0,71,-99.99,,,-99.99,,2013-06-02 05:52:00,